Location: ????? ????????
(55.0091°N, 38.6371°E)
Time: 10:28:14
(UTC+00:00)

Daily predictions for brighter satellites

Satellite Brightness Start Highest point End
(mag) Time Altitude Azimuth Time Altitude Azimuth Time Altitude Azimuth
Cosmos 2279 Rocket 4.1 18:20:27 10° N 18:26:40 71° ENE 18:32:50 10° SSE
Meteor 1-14 Rocket 4.5 18:24:56 10° NNW 18:30:46 81° WSW 18:36:42 10° S
Sich 1 3.9 18:26:42 10° N 18:30:47 37° ENE 18:34:51 10° SE
Meteor 1-11 Rocket 4.0 18:25:58 10° N 18:31:33 62° ENE 18:37:14 10° SSE
Cosmos 1634 Rocket 4.2 18:25:28 10° NNW 18:31:48 80° W 18:38:02 10° S
NOSS 2-1 (C) 3.9 18:30:31 10° NW 18:33:50 50° NNE 18:38:07 10° ESE
ARIANE 5 R/B 4.3 18:30:40 10° ESE 18:34:00 22° ENE 18:37:18 10° N
Landsat 4 3.9 18:35:40 10° S 18:39:09 64° WSW 18:42:38 10° NNW
USA 245 3.0 18:37:32 10° S 18:39:40 41° WSW 18:41:55 10° NNW
Cosmos 1743 Rocket 4.3 18:36:41 10° N 18:40:52 42° ENE 18:45:04 10° SE
Cosmos 1331 Rocket 4.1 18:37:37 10° NNW 18:42:55 88° WSW 18:48:08 10° SSE
Cosmos 2221 3.0 18:38:45 10° SSW 18:43:02 64° WNW 18:47:22 10° N
USA 229 DEB 4.5 18:36:05 10° NW 18:43:09 53° SW 18:50:48 10° SSE
USA 229 4.5 18:36:11 10° NW 18:43:15 53° SW 18:50:56 10° SSE
Lacrosse 5 4.2 18:41:55 10° W 18:44:01 12° WSW 18:46:07 10° SSW
MOS 1 Rocket 3.6 18:39:57 10° SSE 18:45:05 88° ENE 18:50:29 10° NNW
USA 306 3.0 18:42:40 10° W 18:46:19 47° SSW 18:50:05 10° SE
Cosmos 1110 Rocket 4.2 18:42:22 10° NNW 18:47:43 78° WSW 18:53:01 10° SSE
CZ-4C R/B 4.3 18:44:51 10° N 18:48:26 47° WNW 18:52:08 10° SW
Landsat 5 4.0 18:45:05 10° NNE 18:48:35 34° E 18:52:03 10° SSE
Lacrosse 4 Rocket 2.8 18:45:58 10° NNW 18:49:37 31° NE 18:53:19 10° E
GEOS 3 Rocket 4.2 18:45:12 10° ENE 18:49:56 34° ESE 18:54:35 10° S
Cosmos 1733 3.6 18:47:16 10° N 18:50:40 43° ENE 18:53:52 11° SE
SL-16 R/B 2.6 18:47:23 10° SW 18:53:03 72° NW 18:58:47 10° NNE
Cosmos 1408 Rocket 3.6 18:49:00 10° N 18:53:29 85° E 18:57:57 10° SSE
H-2A R/B 4.3 18:51:18 10° ESE 18:54:31 22° ENE 18:57:49 10° N
Lacrosse 5 rocket 1.4 18:50:54 10° WSW 18:55:12 86° NNW 18:59:25 10° ENE
SPOT 3 Rocket 3.8 18:50:19 10° S 18:55:27 70° WSW 19:00:37 10° NNW
Meteor 2-6 Rocket 4.2 18:50:10 10° SSW 18:55:46 87° WNW 19:01:16 10° NNE
Cosmos 1603 4.3 18:50:43 10° S 18:55:51 37° ESE 19:01:03 10° NE
Cosmos 2369 Rocket 3.4 18:54:17 10° NW 18:59:20 35° WSW 19:04:21 10° S
Cosmos 921 Rocket 3.4 18:56:56 10° SSW 19:01:25 71° WNW 19:05:55 10° NNE
BREEZE-M DEB (TANK) 3.0 19:01:03 10° SW 19:02:52 21° S 19:04:34 11° ESE
Terra 2.6 18:59:18 10° S 19:03:50 47° W 19:08:25 10° NNW
Spot 2 Rocket 4.1 19:00:29 10° S 19:05:23 52° W 19:10:21 10° NNW
Cosmos 1975 3.9 19:02:58 10° N 19:06:34 32° ENE 19:09:49 12° SE
Cosmos 1536 3.1 19:06:57 10° NNW 19:10:49 63° W 19:14:39 10° S
Cosmos 1626 4.1 19:09:58 10° ESE 19:11:03 11° E 19:12:09 10° ENE
Okean 1 3.3 19:07:47 10° S 19:11:34 59° E 19:15:25 10° NNE
Meteor 2-10 4.2 19:09:35 10° NNW 19:15:14 87° WSW 19:20:23 11° S
Meteor 1-27 Rocket 3.7 19:19:42 10° S 19:25:09 66° E 19:30:40 10° NNE
Cosmos 1500 Rocket 3.8 19:22:45 10° NNW 19:27:03 63° W 19:31:02 11° S
Ariane Rocket 4.2 19:23:33 10° SSW 19:28:14 37° W 19:32:57 10° NNW
MetOp-A 4.2 19:24:26 11° S 19:28:44 61° WSW 19:33:37 10° NNW
Cosmos 1340 2.4 19:26:09 10° NNW 19:29:34 80° WSW 19:32:12 16° S
Cosmos 1656 3.9 19:25:55 10° NNW 19:31:19 62° NE 19:36:20 12° SE
Cosmos 1151 Rocket 3.3 19:27:55 14° SSE 19:31:31 51° E 19:35:44 10° NNE
Cosmos 1943 3.2 19:27:32 10° SSW 19:33:14 86° ESE 19:38:56 10° NE
USA 59 Rocket -0.1 19:30:32 10° NW 19:34:09 74° SW 19:38:11 14° SE
NOSS 2-1 (E) 3.4 19:31:56 10° NW 19:35:33 73° SW 19:39:32 15° SE
Cosmos 1805 Rocket 3.9 19:32:24 10° NNW 19:36:45 61° W 19:40:38 13° S
Cosmos 468 4.5 19:35:03 10° SSW 19:40:16 88° ESE 19:45:32 10° NNE
Spot 1 4.3 19:40:41 10° NNE 19:44:43 65° WNW 19:48:48 10° SSW
Cosmos 1666 Rocket 3.7 19:40:48 10° N 19:45:07 66° ENE 19:48:18 18° SSE
Cosmos 1633 Rocket 3.4 19:41:37 10° N 19:46:00 57° ENE 19:49:15 17° SSE
NOSS 2-1 (D) 3.6 19:44:08 10° WNW 19:47:42 57° SW 19:51:12 17° SSE
USA 234 3.4 19:41:11 10° E 19:47:46 82° N 19:54:20 10° WNW
USA 281 4.0 19:41:58 11° S 19:48:01 42° WSW 19:54:16 10° NW
Meteor 2-4 Rocket 4.2 19:43:57 15° SSE 19:48:42 51° E 19:54:26 10° NNE
ALOS 2 3.7 19:46:31 13° SE 19:50:02 36° ENE 19:54:04 10° N
Cosmos 1766 4.0 19:47:12 10° N 19:50:44 38° ENE 19:53:16 17° SE
Cosmos 1726 4.3 19:48:59 10° NW 19:50:51 15° W 19:52:42 10° WSW
ISS -1.5 19:49:46 10° WSW 19:51:09 12° SW 19:51:47 12° SSW
PSLV R/B 4.4 19:49:34 10° NNE 19:53:30 43° E 19:56:04 19° SSE
Cosmos 1697 Rocket 3.5 19:49:29 10° NNW 19:54:58 47° NE 20:00:23 10° ESE
Cosmos 1428 Rocket 4.5 19:50:28 13° S 19:55:55 73° E 20:02:02 10° NNE
Cosmos 1805 3.3 19:52:48 10° NNW 19:56:31 67° W 19:59:07 18° S
Cosmos 1470 4.3 19:54:27 10° N 19:57:34 25° ENE 20:00:11 13° ESE
Cosmos 1092 Rocket 4.2 19:54:58 15° S 20:00:09 64° E 20:06:25 10° NNE
Cosmos 1980 Rocket 3.6 19:56:24 10° NNW 20:01:36 34° NE 20:06:46 10° ESE
SL-8 R/B 4.2 19:59:39 10° WSW 20:03:59 36° S 20:08:21 10° ESE
Sich 1 4.4 20:04:17 10° NNW 20:08:11 32° W 20:11:59 10° SSW
ATLAS 2AS CENTAUR R/B 4.1 20:01:39 10° W 20:08:29 44° N 20:15:02 10° ENE
Cosmos 1340 Rocket 3.2 20:05:19 11° SSW 20:09:05 63° WNW 20:13:04 10° N
ARIANE 5 R/B 2.8 20:06:55 18° S 20:10:02 64° WSW 20:14:21 10° NNW
Cosmos 2195 Rocket 4.4 20:08:51 14° S 20:14:14 88° E 20:20:23 10° NNE
Nadezhda 4 Rocket 4.4 20:12:02 10° SSW 20:18:10 63° WNW 20:24:25 10° N
USA 306 4.4 20:16:55 10° W 20:19:27 17° SW 20:20:19 16° SSW
Cosmos 614 Rocket 4.0 20:17:18 15° SSW 20:21:37 70° ESE 20:26:50 10° NNE
Cosmos 44 Rocket 3.6 20:17:44 10° NW 20:22:45 69° NE 20:27:26 11° ESE
NOSS 2-1 (C) 4.4 20:20:04 10° WNW 20:23:31 34° SW 20:26:01 20° S
Cosmos 1992 Rocket 4.3 20:20:38 10° NNW 20:25:45 56° WSW 20:29:18 20° S
Lacrosse 4 Rocket 1.6 20:24:09 10° NW 20:28:08 55° SW 20:30:29 23° SSE
GEOS 3 Rocket 3.9 20:23:04 10° NE 20:28:18 73° NW 20:33:25 10° WSW
H-2A R/B 2.7 20:26:26 21° S 20:29:06 62° WSW 20:33:21 10° NNW
SL-16 R/B 4.5 20:26:37 10° NNW 20:31:07 23° NNE 20:35:35 10° E
Cosmos 2360 4.2 20:27:23 10° NW 20:33:08 85° WSW 20:37:27 18° SSE
Cosmos 220 Rocket 3.9 20:30:03 18° SSW 20:33:10 72° ESE 20:37:29 10° NNE
Lacrosse 5 rocket 1.7 20:29:33 10° W 20:33:47 66° N 20:37:53 10° E
Cosmos 1603 4.4 20:34:13 10° SW 20:39:48 56° NW 20:45:29 10° NNE
Cosmos 1818 4.0 20:37:15 19° S 20:40:43 43° ESE 20:45:53 10° NE
Cosmos 1975 4.1 20:38:55 10° NNW 20:42:25 31° W 20:45:00 16° SW
CZ-2C R/B 4.2 20:39:02 10° N 20:43:31 58° WNW 20:47:23 13° SW
Cosmos 1626 2.0 20:42:16 23° SSW 20:44:06 66° WNW 20:47:21 10° N
Cosmos 2082 Rocket 4.3 20:43:45 10° ESE 20:46:22 13° E 20:49:00 10° ENE
Cosmos 1833 Rocket 3.4 20:44:52 20° SSE 20:48:05 37° ESE 20:53:12 10° NE
NOSS 3-3 (A) 4.2 20:46:56 18° SSW 20:50:51 48° SE 20:57:06 10° NE
USA 267 4.0 20:46:09 10° ENE 20:51:55 32° SE 20:55:43 19° S
Cosmos 2026 Rocket 4.4 20:52:51 13° SSW 20:58:33 59° WNW 21:04:44 10° N
Spot 4 4.4 20:57:10 20° SSW 21:00:10 47° W 21:04:48 10° NNW
NOSS 3-4 (A) 3.8 20:57:13 10° NW 21:03:49 86° SW 21:11:30 10° SE
NOSS 3-4 (C) 3.8 20:57:20 10° NW 21:03:55 87° SW 21:11:36 10° SE
Cosmos 1140 Rocket 4.1 21:02:36 21° SSE 21:05:37 42° ESE 21:10:32 10° NE
Cosmos 1328 Rocket 4.2 21:02:19 16° SW 21:05:37 49° WNW 21:09:51 10° N
Cosmos 1908 3.0 21:02:20 10° N 21:05:56 81° E 21:07:45 27° SSE
Cosmos 1515 Rocket 3.5 21:04:40 23° S 21:07:20 89° W 21:11:42 10° NNE
PSLV R/B 4.0 21:04:24 10° NNE 21:08:55 55° E 21:11:30 23° S
SL-24 R/B 4.5 21:04:52 10° NNE 21:09:18 60° ESE 21:12:14 23° S
S3M 4.1 21:04:20 10° NNW 21:10:45 89° ENE 21:15:26 20° S
Cosmos 1869 Rocket 3.5 21:10:04 10° N 21:14:27 84° E 21:17:05 24° SSE
Cosmos 1733 Rocket 4.1 21:10:31 10° N 21:14:35 38° ENE 21:17:54 14° SE
Cosmos 2315 Rocket 4.2 21:09:38 10° N 21:15:56 73° ENE 21:20:46 18° SSE
Cosmos 1441 Rocket 3.1 21:12:45 10° N 21:16:23 72° ENE 21:18:17 26° SSE
Cosmos 1842 3.0 21:14:51 26° SSW 21:16:49 85° W 21:20:32 10° N
GP-B 3.5 21:13:21 10° N 21:17:42 54° E 21:20:24 22° SSE
Cosmos 1707 2.5 21:17:45 28° S 21:19:36 79° E 21:23:16 10° NNE
NOSS 3-3 (C) 3.9 21:15:13 16° SSW 21:19:42 64° SE 21:26:18 10° NE
Cosmos 1674 2.6 21:19:19 26° SSW 21:21:08 68° WNW 21:24:38 10° N
H-2A R/B 2.4 21:18:25 10° NNE 21:22:49 59° ESE 21:25:23 24° S
USA 59 Rocket 2.1 21:21:05 10° W 21:23:35 15° WSW 21:24:43 14° SW
Cosmos 1269 Rocket 4.1 21:19:27 16° SW 21:23:44 76° WNW 21:29:03 10° NNE
Cosmos 1400 Rocket 4.2 21:21:57 17° SE 21:24:07 28° E 21:27:32 10° NNE
Cosmos 2333 Rocket 4.5 21:21:07 10° NNW 21:25:49 25° NNE 21:30:31 10° E
ALOS 2 3.6 21:23:55 20° SSW 21:26:22 36° W 21:30:28 10° NNW
Cosmos 2285 Rocket 4.3 21:22:11 20° S 21:26:25 56° ESE 21:32:37 10° NNE
Cosmos 2251 Rocket 4.2 21:23:35 21° SSE 21:26:39 40° ESE 21:31:34 10° NE
Cosmos 407 Rocket 4.1 21:24:11 21° SSE 21:27:19 44° ESE 21:32:18 10° NE
USA 234 3.3 21:24:30 10° SE 21:31:00 62° SSW 21:37:30 10° WNW
Cosmos 2322 Rocket 4.1 21:26:29 10° NNW 21:31:26 30° NE 21:36:23 10° E
Cosmos 1346 Rocket 4.0 21:28:36 10° N 21:32:12 35° ENE 21:35:19 13° SE
Cosmos 1470 3.6 21:29:37 10° NNW 21:33:04 36° W 21:34:51 22° SW
Cosmos 1763 Rocket 3.6 21:28:48 10° NNW 21:34:09 84° ENE 21:38:27 16° SSE
KORONAS-FOTON 4.0 21:32:27 24° SSW 21:34:30 61° WNW 21:38:11 10° N
Cosmos 1933 Rocket 4.4 21:34:27 10° NNW 21:38:30 38° W 21:40:56 20° SSW
Cosmos 1697 Rocket 3.2 21:33:37 10° NW 21:38:57 45° WSW 21:42:21 21° S
Meteor 1-13 Rocket 4.3 21:40:49 20° SSW 21:45:03 89° E 21:50:59 10° NNE
SL-8 R/B 4.2 21:41:30 10° WSW 21:45:49 34° S 21:50:07 10° SE
Cosmos 1980 Rocket 2.2 21:40:24 10° NW 21:46:07 73° WSW 21:50:35 17° SSE
Cosmos 1300 2.5 21:45:41 10° N 21:49:16 76° ENE 21:51:18 24° SSE
Aureole 3 4.2 21:49:19 18° SE 21:50:41 25° E 21:53:15 10° NNE
Cosmos 1607 4.2 21:46:31 19° SSW 21:51:10 59° SE 21:57:33 10° NE
Cosmos 1953 3.9 21:47:55 10° N 21:51:25 29° ENE 21:54:52 10° SE
Cosmos 1862 Rocket 4.3 21:50:05 19° SSE 21:52:48 41° E 21:56:54 10° NNE
Cosmos 540 Rocket 3.5 21:47:49 10° NNW 21:53:02 87° ENE 21:57:25 15° SSE
SL-14 R/B 3.8 21:51:17 22° SSE 21:53:27 49° E 21:57:10 10° NNE
Cosmos 1655 Rocket 4.1 21:49:21 20° S 21:53:58 86° E 22:00:25 10° NNE
Cosmos 2369 3.7 21:51:07 10° NW 21:56:51 76° WSW 22:01:44 14° SSE
COSMOS 2406 4.2 21:55:28 17° SSE 21:59:10 35° ESE 22:04:21 10° NE
OPS 6432 4.1 21:57:27 10° NW 22:00:38 62° SW 22:02:28 21° SSE
ATLAS 2AS CENTAUR R/B 3.8 21:53:57 10° WNW 22:00:45 47° NNE 22:07:15 10° E
In-Cosmos 22 4.3 21:57:21 20° SSW 22:01:30 81° WNW 22:07:16 10° NNE
Cosmos 44 Rocket 4.3 21:59:38 10° WNW 22:03:55 30° WSW 22:06:03 21° SSW
Meteor 2-10 Rocket 3.9 21:58:27 10° NNW 22:04:15 70° W 22:08:28 19° S
Meteor 1-16 Rocket 4.5 21:59:06 10° N 22:04:44 69° ENE 22:10:00 13° SSE
Cosmos 2266 Rocket 4.3 22:01:39 18° SSW 22:06:20 61° WNW 22:12:35 10° N
Cosmos 1758 3.3 22:02:57 10° NNW 22:06:46 64° W 22:08:54 24° S
Meteor 2-20 4.5 22:04:57 10° NNW 22:11:07 75° W 22:15:50 18° S
Lacrosse 5 rocket 1.2 22:08:05 10° WNW 22:12:16 73° SSW 22:16:16 10° ESE
Cosmos 1356 Rocket 3.9 22:10:39 20° SSE 22:13:12 50° E 22:17:12 10° NNE
SL-16 R/B 2.7 22:10:40 10° NNW 22:16:20 63° NE 22:21:58 10° SE
Cosmos 1707 Rocket 3.6 22:14:22 21° S 22:17:15 81° E 22:21:44 10° NNE
Okean 1-7 4.0 22:16:54 15° SSE 22:20:01 40° E 22:24:05 10° NNE
BREEZE-M DEB (TANK) 4.5 22:19:35 13° SW 22:23:03 51° SSE 22:35:27 10° E
SL-19 R/B 4.5 22:19:48 10° NNE 22:24:13 79° ESE 22:26:49 21° SSW
Cosmos 1818 4.1 22:18:48 10° WSW 22:24:13 59° NW 22:29:40 10° NE
Okean 3 3.6 22:22:31 20° S 22:25:13 65° E 22:29:18 10° NNE
Meteor 1-21 4.3 22:22:23 18° S 22:26:39 78° ESE 22:32:26 10° NNE
Cosmos 2082 Rocket 2.4 22:25:12 19° SSW 22:29:20 62° ESE 22:35:00 10° NE
Cosmos 2219 Rocket 4.1 22:24:19 10° NNW 22:29:23 32° NE 22:34:26 10° E
SL-16 R/B 4.2 22:24:00 10° ESE 22:29:32 34° NE 22:35:05 10° N
Cosmos 2228 Rocket 3.2 22:27:55 20° SSW 22:30:56 69° WNW 22:35:27 10° N
Cosmos 1833 Rocket 3.2 22:26:31 11° SW 22:31:51 55° NW 22:37:24 10° NNE
Cosmos 1315 Rocket 4.2 22:29:02 12° SSE 22:32:03 30° E 22:35:30 10° NNE
BREEZE-M DEB (TANK) 1.3 22:29:19 10° W 22:32:21 53° S 22:34:18 10° E
Cosmos 724 4.3 22:29:06 15° SW 22:34:01 84° SE 22:39:53 10° NE
CZ-2D R/B 3.8 22:30:00 10° NE 22:34:34 26° E 22:39:05 10° SSE
Helios 1A Rocket 2.9 22:32:21 20° S 22:34:53 60° WSW 22:38:43 10° NNW
USA 267 3.2 22:29:06 10° ENE 22:35:39 73° SSE 22:42:12 10° WSW
Cosmos 2237 4.3 22:30:07 10° NW 22:35:54 87° ENE 22:41:39 10° SSE
Cosmos 2360 Rocket 3.1 22:32:57 10° NNW 22:38:32 51° NE 22:44:03 10° ESE
Cosmos 1782 Rocket 4.4 22:36:16 10° N 22:40:34 49° ENE 22:44:48 10° SSE
Cosmos 1908 Rocket 3.6 22:36:57 10° N 22:41:25 84° ENE 22:45:16 14° SSE
NOSS 3-3 (A) 4.5 22:35:48 10° WSW 22:41:37 62° NNW 22:48:35 10° NE
Cosmos 1140 Rocket 4.4 22:42:32 10° WSW 22:47:25 42° NW 22:52:24 10° NNE
Nimbus 7 Rocket 4.5 22:41:46 10° NNE 22:47:46 82° WNW 22:52:45 16° SSW
Resurs 1-4 Rocket 3.4 22:44:56 10° NNE 22:49:41 33° E 22:54:24 10° SSE
Cosmos 841 Rocket 3.5 22:45:32 10° NNW 22:50:46 73° WSW 22:56:00 10° SSE
Cosmos 1733 Rocket 4.1 22:48:25 10° NNW 22:52:14 31° W 22:54:54 16° SW
Cosmos 1455 1.8 22:51:21 10° NNW 22:54:50 81° W 22:57:32 16° S
RESURS DK-1 3.7 22:51:30 10° NNW 22:55:23 41° NE 22:59:16 10° ESE
H-2A R/B 3.8 22:54:36 10° N 22:58:14 25° WNW 23:01:49 10° WSW
Cosmos 2278 3.8 22:52:35 10° NW 22:58:15 64° WSW 23:03:53 10° SSE
Cosmos 1400 Rocket 3.8 22:57:06 15° SW 23:00:02 37° WNW 23:03:47 10° N
BREEZE-M DEB (TANK) 3.0 22:56:26 10° WSW 23:03:30 42° S 23:06:13 10° ESE
COBE Rocket 4.4 22:59:23 10° NNE 23:04:09 55° E 23:08:50 11° S
H-2A R/B 4.2 23:00:25 10° NNE 23:04:17 45° E 23:07:50 12° S
Cosmos 676 Rocket 4.1 23:02:34 16° SSW 23:06:56 87° ESE 23:12:19 10° NNE
Cosmos 1346 Rocket 3.9 23:04:38 10° NNW 23:07:58 27° W 23:10:18 16° SW
Cosmos 2251 Rocket 4.3 23:04:01 11° SW 23:08:53 45° NW 23:13:59 10° NNE
Cosmos 407 Rocket 4.4 23:04:20 10° WSW 23:09:21 42° NW 23:14:20 10° NNE
Cosmos 1745 Rocket 4.1 23:03:58 12° S 23:09:46 78° E 23:16:05 10° NNE
Cosmos 2333 Rocket 2.5 23:05:21 10° NNW 23:11:04 72° NE 23:16:48 10° SE
CZ-2C R/B 2.7 23:07:40 10° SSE 23:12:50 82° ENE 23:18:03 10° NNW
Cosmos 1954 Rocket 4.1 23:08:32 14° SW 23:13:03 74° WNW 23:18:24 10° NNE
Orbus 7S? 2.7 23:10:13 10° W 23:13:09 72° NNW 23:15:58 10° ENE
USA 234 4.2 23:09:43 10° S 23:14:57 25° SW 23:20:11 10° WNW
Cosmos 1190 Rocket 4.4 23:10:57 13° SW 23:15:38 58° WNW 23:20:54 10° NNE
Cosmos 2322 Rocket 2.2 23:10:27 10° NW 23:16:08 85° WSW 23:21:49 10° SSE
Okean 2 3.4 23:14:08 16° SSW 23:17:17 66° WNW 23:21:16 10° N
Cosmos 1814 Rocket 4.2 23:13:38 10° NNW 23:18:52 79° ENE 23:24:07 10° SSE
Cosmos 2098 Rocket 4.3 23:14:09 10° N 23:18:56 53° ENE 23:24:38 10° SSE
Meteor 1-4 Rocket 2.0 23:20:58 17° SSW 23:23:09 72° WNW 23:26:08 10° N
NPP 3.9 23:18:17 10° NNE 23:23:41 70° ESE 23:29:04 10° S
Cosmos 1703 Rocket 3.6 23:21:49 13° SSW 23:25:41 77° WNW 23:30:10 10° N
Cosmos 1953 3.2 23:23:43 10° NNW 23:27:17 33° W 23:30:14 13° SSW
Nadezhda 1 Rocket 4.3 23:21:10 10° NNW 23:27:25 56° W 23:33:36 10° SSW
Cosmos 839 Rocket 4.3 23:20:58 10° NW 23:28:48 87° SW 23:35:13 10° SE
Cosmos 1980 Rocket 3.9 23:25:48 10° WNW 23:29:09 16° W 23:32:18 11° SW
Okean 2 Rocket 4.5 23:32:40 10° N 23:36:48 39° ENE 23:40:57 10° SE
ADEOS II 2.8 23:31:59 10° NNE 23:37:06 50° E 23:42:11 10° S
Cosmos 1300 Rocket 3.6 23:34:22 10° NNW 23:38:39 62° W 23:42:54 10° S
SL-27 R/B 4.0 23:38:05 10° SSE 23:40:16 21° ESE 23:42:29 10° NE
IDEFIX/ARIANE 42P 2.6 23:37:01 10° NNE 23:42:19 86° WNW 23:47:35 10° SSW
COSMOS 2406 3.6 23:37:33 10° SW 23:43:14 60° NW 23:48:58 10° NNE
Cosmos 1242 Rocket 2.0 23:41:57 11° S 23:44:43 74° E 23:47:36 10° NNE
ALOS 3.6 23:43:08 10° NNE 23:47:25 36° E 23:51:40 10° SSE
Lacrosse 5 rocket 2.5 23:46:57 10° W 23:50:06 22° SW 23:53:09 10° S
ATLAS 2AS CENTAUR R/B 2.7 23:45:19 10° NW 23:52:19 88° SW 23:59:00 10° SE
Cosmos 1408 2.2 23:49:25 10° S 23:52:24 74° E 23:55:24 10° NNE
